• MPC Preparation (Info)

  • MPEC 2015-M30 : 2015 MO11

    The following Minor Planet Electronic Circular may be linked-to from your own Web pages, but must not otherwise be redistributed electronically.

    A form allowing access to any MPEC is at the bottom of this page.


    Read MPEC 2015-M29 Read MPEC 2015-M31


    M.P.E.C. 2015-M30                                Issued 2015 June 20, 17:09 UT
    
         The Minor Planet Electronic Circulars contain information on unusual
             minor planets and routine data on comets.  They are published
       on behalf of Commission 20 of the International Astronomical Union by the
              Minor Planet Center, Smithsonian Astrophysical Observatory,
                              Cambridge, MA 02138, U.S.A.
    
                 Prepared using the Tamkin Foundation Computer Network
    
                                  MPC@CFA.HARVARD.EDU
                URL https://www.minorplanetcenter.net/    ISSN 1523-6714
    
                                       2015 MO11
    
    Observations:
         K15M11O  C2015 06 16.58691 20 15 26.71 -10 49 05.3          21.8 RtEM030F51
         K15M11O  C2015 06 16.59779 20 15 27.17 -10 49 09.8          21.6 RtEM030F51
         K15M11O* C2015 06 18.53562 20 16 56.089-11 04 29.90         21.3 wLEM030F51
         K15M11O  C2015 06 18.54765 20 16 56.553-11 04 36.09         21.3 wLEM030F51
         K15M11O  C2015 06 18.55965 20 16 57.062-11 04 42.22         21.5 wLEM030F51
         K15M11O  C2015 06 18.57160 20 16 57.515-11 04 48.05         21.4 wLEM030F51
         K15M11O  C2015 06 19.39427220 17 33.75 -11 11 44.6          20.9 RtEM030W87
         K15M11O  C2015 06 19.39800520 17 33.90 -11 11 46.4          21.0 RtEM030W87
         K15M11O  C2015 06 19.40174520 17 34.06 -11 11 48.2          20.8 RtEM030W87
         K15M11O  C2015 06 19.40548120 17 34.19 -11 11 50.2          21.3 RtEM030W87
         K15M11O KC2015 06 20.39863 20 18 17.84 -11 21 08.7          21.1 RoEM030291
         K15M11O KC2015 06 20.40294 20 18 18.03 -11 21 11.0          21.1 RoEM030291
         K15M11O KC2015 06 20.40723 20 18 18.17 -11 21 13.5          20.9 RoEM030291
    
    Observer details:
    291 LPL/Spacewatch II.  Observer J. V. Scotti.  1.8-m f/2.7 reflector + CCD.
    F51 Pan-STARRS 1, Haleakala.  Observers B. Gibson, T. Goggia, N. Primak,
        A. Schultz, M. Willman.  Measurers K. Chambers, S. Chastel, L. Denneau,
        H. Flewelling, M. Huber, E. Lilly, E. Magnier, R. Wainscoat, C. Waters,
        R. Weryk, P. Veres.  1.8-m Ritchey-Chretien + CCD.
    W87 Cerro Tololo-LCOGT C.  Observer T. Lister.  1.0-m f/8 Ritchey-Chretien
        + CCD.
    
    Orbital elements:
    2015 MO11                                                Earth MOID = 0.2892 AU
    Epoch 2015 June 27.0 TT = JDT 2457200.5                 MPC
    M 336.67751              (2000.0)            P               Q
    n   0.24935008     Peri.  239.89682     +0.97467149     +0.05316221
    a   2.4999407      Node   116.28670     +0.01183514     +0.95771351
    e   0.5139796      Incl.   14.02149     -0.22332802     +0.28276954
    P   3.95           H   20.1           G   0.15           U   7
    Residuals in seconds of arc
    150616 F51  0.0   0.2-    150618 F51  0.1-  0.1+    150620 291  0.2-  0.0
    150616 F51  0.0   0.1+    150619 W87  0.1+  0.5-    150620 291  0.2+  0.1+
    150618 F51  0.0   0.2+    150619 W87  0.1+  0.4-    150620 291  0.2-  0.0
    150618 F51  0.2-  0.0     150619 W87  0.3+  0.2-
    150618 F51  0.3+  0.0     150619 W87  0.0   0.2-
    
    Ephemeris:
    2015 MO11                a,e,i = 2.50, 0.51, 14                  q = 1.2150
    Date    TT    R. A. (2000) Decl.     Delta      r     Elong.  Phase     V
    2015 05 21    19 49 30.6 -09 40 13   1.0611  1.8066   121.2    28.6    22.8
    ...
    2015 06 05    20 05 21.5 -09 52 04   0.8579  1.7093   131.6    26.3    22.1
    ...
    2015 06 13    20 12 33.0 -10 25 26   0.7599  1.6580   137.6    24.4    21.7
    ...
    2015 06 19    20 17 16.7 -11 08 21   0.6915  1.6200   142.4    22.5    21.4
    2015 06 20    20 18 00.6 -11 17 17   0.6806  1.6137   143.2    22.1    21.4
    2015 06 21    20 18 43.4 -11 26 46   0.6698  1.6074   144.1    21.8    21.3
    ...
    2015 06 27    20 22 39.9 -12 36 19   0.6081  1.5702   149.3    19.3    21.0
    ...
    2015 07 05    20 27 01.5 -14 48 06   0.5340  1.5218   156.7    15.4    20.5
    ...
    2015 07 20    20 32 43.4 -21 24 34   0.4232  1.4359   171.2     6.2    19.5
    
    A. U. Tomatic                (C) Copyright 2015 MPC           M.P.E.C. 2015-M30
    

    Read MPEC 2015-M29 Read MPEC 2015-M31


    MPEC number:

    Enter an MPEC number in one of the following forms:

    • 1997-B01 (the full form)
    • J97B01 (the packed version of the full form)
    • B01 (the abbreviated form)